Flag for Germany Weather past 2 weeks in Wesseling, North Rhine-Westphalia, Germany

Now
36 °F

Overcast.


Feels Like: 33 °F
Forecast: 34 / 39 °F
Wind: 3 mph from Southeast

Location: Koeln / Bonn

Current Time: Jan 29, 2015 at 11:54:23 PM

Latest Report: Jan 29, 2015 at 11:00 PM


Visibility: 31 mi

Pressure: 28.76 "Hg

Humidity: 91%

Dew point: 34 °F

Location of WesselingLocation

Historic Weather in Wesseling — Graph

°F

Wesseling temperature yesterday

Maximum temperature yesterday: 44 °F (at 2:00 PM)
Minimum temperature yesterday: 35 °F (at 5:00 AM)
Average temperature yesterday: 39 °F

Past Weeks' High & Low Weather Summary

 TemperatureHumidityPressure
High53 °F (Jan 15, 4:00 PM)100% (Jan 24, 12:00 PM)30.45 "Hg (Jan 24, 12:00 PM)
Low27 °F (Jan 21, 6:00 AM)57% (Jan 15, 4:00 PM)28.76 "Hg (Jan 29, 10:00 PM)
Average36 °F85%29.96 "Hg
* Reported Jan 14 10:00 PM — Jan 29 10:00 PM, Wesseling, Weather by CustomWeather, © 2014

Note: Actual official high and low records may vary slightly from our data, if they occured in-between our weather recording intervals... More about our weather records

Advertising

Wesseling weather history for previous 24 hours

 ConditionsComfort  
Time TempWeatherWind HumidityBarometerVisibility
10:00 PM
Jan 29
36 °FOvercast.2 mph89%28.76 "Hg31 mi
9:00 PM37 °FOvercast.3 mph89%28.79 "Hg31 mi
8:00 PM36 °FOvercast.3 mph91%28.85 "Hg25 mi
7:00 PM36 °FOvercast.5 mph95%28.88 "Hg19 mi
6:00 PM37 °FLight rain. Overcast.7 mph89%28.94 "Hg12 mi
5:00 PM38 °FLight rain. Overcast.7 mph81%28.97 "Hg12 mi
4:00 PM41 °FLight rain. Overcast.7 mph68%29.03 "Hg19 mi
3:00 PM41 °FPartly sunny.7 mph64%29.06 "Hg25 mi
2:00 PM43 °FPartly sunny.8 mph61%29.12 "Hg25 mi
1:00 PM43 °FPartly sunny.10 mph66%29.18 "Hg28 mi
12:00 PM40 °FPartly sunny.5 mph73%29.21 "Hg28 mi
11:00 AM38 °FOvercast.6 mph80%29.26 "Hg25 mi
10:00 AM36 °FOvercast.6 mph82%29.29 "Hg28 mi
9:00 AM36 °FPartly sunny.7 mph79%29.32 "Hg28 mi
8:00 AM36 °FPassing clouds.6 mph75%29.32 "Hg25 mi
7:00 AM36 °FOvercast.6 mph76%29.38 "Hg25 mi
6:00 AM35 °FPassing clouds.5 mph77%29.38 "Hg31 mi
5:00 AM33 °FPassing clouds.5 mph78%29.44 "Hg31 mi
4:00 AM35 °FClear.5 mph76%29.47 "Hg31 mi
3:00 AM35 °FClear.6 mph77%29.47 "Hg31 mi
2:00 AM35 °FPassing clouds.5 mph81%29.50 "Hg31 mi
1:00 AM36 °FPassing clouds.6 mph80%29.50 "Hg12 mi
12:00 AM37 °FSprinkles. Low clouds.8 mph82%29.50 "Hg19 mi
11:00 PM
Jan 28
36 °FPassing clouds.6 mph83%29.50 "Hg31 mi
Weather by CustomWeather, © 2014

See weather overviewHow to use our weather pages